| time (UTC) | temp C | wind direction | speed KPH | gust KPH | rain 1hr cm | rain 24hr cm | rain mn cm | humidity % | barometer mb |
| 20260502130315 | 20 | 229 | 9.7 | 17.7 | 0.00 | 0.00 | 0.00 | 55 | 1014.6 |
| 20260502123322 | 19 | 223 | 9.7 | 20.9 | 0.00 | 0.00 | 0.00 | 53 | 1014.7 |
| 20260502122311 | 18 | 243 | 12.9 | 20.9 | 0.00 | 0.00 | 0.00 | 55 | 1015.0 |
| 20260502120153 | 18 | 210 | 8.0 | 17.7 | 0.00 | 0.00 | 0.00 | 59 | 1015.2 |
| 20260502115213 | 17 | 233 | 11.3 | 17.7 | 0.00 | 0.00 | 0.00 | 60 | 1015.2 |
| 20260502114208 | 17 | 242 | 9.7 | 24.1 | 0.00 | 0.00 | 0.00 | 59 | 1015.3 |
| 20260502113150 | 17 | 258 | 12.9 | 24.1 | 0.00 | 0.00 | 0.00 | 60 | 1015.5 |
| 20260502111055 | 16 | 261 | 12.9 | 22.5 | 0.00 | 0.00 | 0.00 | 62 | 1016.0 |
| 20260502110057 | 16 | 277 | 14.5 | 22.5 | 0.00 | 0.00 | 0.00 | 63 | 1016.2 |
| 20260502104541 | 15 | 248 | 12.9 | 14.5 | 0.00 | 0.00 | 0.00 | 65 | 1016.0 |
| 20260502103934 | 16 | 0 | 0.0 | 0.0 | 0.00 | 0.00 | 0.00 | 68 | 1016.7 |
| 20260502100803 | 15 | 0 | 0.0 | 0.0 | 0.00 | 0.00 | 0.00 | 73 | 1016.8 |
| 20260502090343 | 12 | 0 | 0.0 | 0.0 | 0.00 | 0.00 | 0.00 | 77 | 1017.7 |
| 20260502070802 | 11 | 0 | 0.0 | 0.0 | 0.00 | 0.00 | 0.00 | 85 | 1018.0 |
| 20260502065818 | 11 | 0 | 0.0 | 0.0 | 0.00 | 0.00 | 0.00 | 86 | 1017.7 |
| 20260502064843 | 10 | 0 | 0.0 | 0.0 | 0.00 | 0.00 | 0.00 | 87 | 1017.6 |
| 20260502063839 | 10 | 0 | 0.0 | 0.0 | 0.00 | 0.00 | 0.00 | 87 | 1017.6 |
| 20260502062820 | 10 | 0 | 0.0 | 0.0 | 0.00 | 0.00 | 0.00 | 87 | 1017.6 |
| 20260502061749 | 10 | 0 | 0.0 | 0.0 | 0.00 | 0.00 | 0.00 | 88 | 1017.5 |
| 20260502060724 | 10 | 0 | 0.0 | 0.0 | 0.00 | 0.00 | 0.00 | 88 | 1017.5 |
| 20260502055700 | 10 | 0 | 0.0 | 0.0 | 0.00 | 0.00 | 0.00 | 88 | 1017.3 |
| 20260502052405 | 10 | 0 | 0.0 | 0.0 | 0.00 | 0.00 | 0.00 | 88 | 1017.4 |
| 20260502051352 | 9 | 0 | 0.0 | 0.0 | 0.00 | 0.00 | 0.00 | 87 | 1017.4 |
| 20260502045306 | 9 | 0 | 0.0 | 0.0 | 0.00 | 0.00 | 0.00 | 87 | 1017.6 |
| 20260502044329 | 9 | 0 | 0.0 | 0.0 | 0.00 | 0.00 | 0.00 | 87 | 1017.5 |
| 20260502043353 | 9 | 0 | 0.0 | 0.0 | 0.00 | 0.00 | 0.00 | 87 | 1017.6 |
| 20260502041256 | 10 | 0 | 0.0 | 0.0 | 0.00 | 0.00 | 0.00 | 86 | 1017.6 |
| 20260502040312 | 10 | 0 | 0.0 | 0.0 | 0.00 | 0.00 | 0.00 | 86 | 1017.7 |
| 20260502035319 | 10 | 0 | 0.0 | 0.0 | 0.00 | 0.00 | 0.00 | 86 | 1017.8 |
| 20260502034322 | 10 | 0 | 0.0 | 0.0 | 0.00 | 0.00 | 0.00 | 86 | 1017.7 |
| 20260502033323 | 10 | 0 | 0.0 | 0.0 | 0.00 | 0.00 | 0.00 | 86 | 1017.8 |
| 20260502032256 | 10 | 0 | 0.0 | 0.0 | 0.00 | 0.00 | 0.00 | 85 | 1017.7 |
| 20260502031309 | 10 | 0 | 0.0 | 0.0 | 0.00 | 0.00 | 0.00 | 86 | 1017.8 |
| 20260502030326 | 10 | 0 | 0.0 | 0.0 | 0.00 | 0.00 | 0.00 | 86 | 1017.8 |
| 20260502025347 | 11 | 0 | 0.0 | 0.0 | 0.00 | 0.00 | 0.00 | 86 | 1017.9 |
| 20260502024344 | 11 | 0 | 0.0 | 0.0 | 0.00 | 0.00 | 0.00 | 86 | 1017.9 |
| 20260502023332 | 11 | 0 | 0.0 | 0.0 | 0.00 | 0.00 | 0.00 | 86 | 1018.0 |
| 20260502021227 | 11 | 0 | 0.0 | 0.0 | 0.00 | 0.00 | 0.00 | 86 | 1018.0 |
| 20260502020243 | 11 | 0 | 0.0 | 0.0 | 0.00 | 0.00 | 0.00 | 85 | 1018.1 |
| 20260502014030 | 12 | 0 | 0.0 | 0.0 | 0.00 | 0.00 | 0.00 | 86 | 1018.3 |
| 20260502013004 | 12 | 0 | 0.0 | 0.0 | 0.00 | 0.00 | 0.00 | 86 | 1018.4 |
| 20260502011941 | 12 | 0 | 0.0 | 0.0 | 0.00 | 0.00 | 0.00 | 86 | 1018.6 |
| 20260502005756 | 12 | 0 | 0.0 | 0.0 | 0.00 | 0.00 | 0.00 | 86 | 1018.7 |
| 20260502004808 | 12 | 0 | 0.0 | 0.0 | 0.00 | 0.00 | 0.00 | 86 | 1018.8 |
| 20260502003825 | 12 | 0 | 0.0 | 0.0 | 0.00 | 0.00 | 0.00 | 86 | 1018.8 |
| 20260502002826 | 12 | 0 | 0.0 | 0.0 | 0.00 | 0.00 | 0.00 | 86 | 1018.9 |
| 20260502000703 | 12 | 0 | 0.0 | 0.0 | 0.00 | 0.00 | 0.00 | 86 | 1018.9 |
| 20260501234512 | 12 | 0 | 0.0 | 0.0 | 0.00 | 0.00 | 0.00 | 86 | 1018.8 |
| 20260501233450 | 12 | 0 | 0.0 | 0.0 | 0.00 | 0.00 | 0.00 | 87 | 1018.9 |
| 20260501231331 | 12 | 0 | 0.0 | 0.0 | 0.00 | 0.00 | 0.00 | 86 | 1019.2 |
| 20260501230324 | 12 | 0 | 0.0 | 0.0 | 0.00 | 0.00 | 0.00 | 86 | 1019.1 |
| 20260501225326 | 12 | 0 | 0.0 | 0.0 | 0.00 | 0.00 | 0.00 | 86 | 1019.0 |
| 20260501224254 | 12 | 0 | 0.0 | 0.0 | 0.00 | 0.00 | 0.00 | 86 | 1019.0 |
| 20260501223232 | 12 | 0 | 0.0 | 0.0 | 0.00 | 0.00 | 0.00 | 86 | 1018.9 |
| 20260501222203 | 12 | 0 | 0.0 | 0.0 | 0.00 | 0.00 | 0.00 | 86 | 1019.0 |
| 20260501221225 | 12 | 0 | 0.0 | 0.0 | 0.00 | 0.00 | 0.00 | 85 | 1018.8 |
| 20260501220240 | 13 | 249 | 14.5 | 25.7 | 0.00 | 0.00 | 0.00 | 79 | 1018.3 |
| 20260501215240 | 13 | 249 | 14.5 | 25.7 | 0.00 | 0.00 | 0.00 | 79 | 1018.2 |
| 20260501214257 | 13 | 249 | 14.5 | 25.7 | 0.00 | 0.00 | 0.00 | 79 | 1018.3 |
| 20260501213307 | 13 | 249 | 14.5 | 25.7 | 0.00 | 0.00 | 0.00 | 79 | 1018.4 |
| 20260501212240 | 13 | 249 | 14.5 | 25.7 | 0.00 | 0.00 | 0.00 | 79 | 1018.3 |
| 20260501211225 | 13 | 249 | 14.5 | 25.7 | 0.00 | 0.00 | 0.00 | 79 | 1018.3 |
| 20260501210156 | 13 | 249 | 14.5 | 25.7 | 0.00 | 0.00 | 0.00 | 78 | 1018.3 |
| 20260501205134 | 13 | 249 | 14.5 | 25.7 | 0.00 | 0.00 | 0.00 | 78 | 1018.3 |
| 20260501204150 | 13 | 249 | 14.5 | 25.7 | 0.00 | 0.00 | 0.00 | 78 | 1018.3 |
| 20260501203159 | 13 | 249 | 14.5 | 25.7 | 0.00 | 0.00 | 0.00 | 78 | 1018.3 |
| 20260501202222 | 13 | 249 | 14.5 | 25.7 | 0.00 | 0.00 | 0.00 | 77 | 1018.3 |
| 20260501201207 | 13 | 249 | 14.5 | 25.7 | 0.00 | 0.00 | 0.00 | 77 | 1018.2 |
| 20260501200233 | 14 | 248 | 14.5 | 25.7 | 0.00 | 0.00 | 0.00 | 77 | 1018.3 |
| 20260501195243 | 14 | 246 | 14.5 | 25.7 | 0.00 | 0.00 | 0.00 | 75 | 1018.3 |
| 20260501194250 | 15 | 246 | 14.5 | 20.9 | 0.00 | 0.00 | 0.00 | 73 | 1018.2 |
| 20260501193254 | 15 | 241 | 14.5 | 20.9 | 0.00 | 0.00 | 0.00 | 71 | 1018.0 |
| 20260501192230 | 15 | 246 | 12.9 | 20.9 | 0.00 | 0.00 | 0.00 | 69 | 1018.1 |
| 20260501190135 | 16 | 250 | 14.5 | 20.9 | 0.00 | 0.00 | 0.00 | 66 | 1017.8 |
| 20260501185141 | 16 | 244 | 14.5 | 19.3 | 0.00 | 0.00 | 0.00 | 65 | 1017.9 |
| 20260501184202 | 16 | 256 | 14.5 | 20.9 | 0.00 | 0.00 | 0.00 | 64 | 1017.9 |
| 20260501183159 | 17 | 243 | 17.7 | 24.1 | 0.00 | 0.00 | 0.00 | 63 | 1017.7 |
| 20260501182154 | 17 | 254 | 17.7 | 24.1 | 0.00 | 0.00 | 0.00 | 62 | 1017.7 |
| 20260501181150 | 17 | 256 | 17.7 | 29.0 | 0.00 | 0.00 | 0.00 | 61 | 1017.6 |
| 20260501180159 | 17 | 255 | 19.3 | 29.0 | 0.00 | 0.00 | 0.00 | 60 | 1017.6 |
| 20260501175154 | 18 | 258 | 19.3 | 33.8 | 0.00 | 0.00 | 0.00 | 59 | 1017.6 |
| 20260501174143 | 18 | 264 | 22.5 | 33.8 | 0.00 | 0.00 | 0.00 | 58 | 1017.5 |
| 20260501173126 | 20 | 254 | 22.5 | 30.6 | 0.00 | 0.00 | 0.00 | 56 | 1017.4 |
| 20260501172122 | 20 | 253 | 22.5 | 35.4 | 0.00 | 0.00 | 0.00 | 55 | 1017.2 |
| 20260501171125 | 21 | 266 | 22.5 | 38.6 | 0.00 | 0.00 | 0.00 | 54 | 1017.1 |
| 20260501170129 | 22 | 250 | 25.7 | 38.6 | 0.00 | 0.00 | 0.00 | 53 | 1017.0 |
| 20260501164030 | 23 | 242 | 12.9 | 20.9 | 0.00 | 0.00 | 0.00 | 49 | 1016.5 |
| 20260501163031 | 23 | 245 | 12.9 | 20.9 | 0.00 | 0.00 | 0.00 | 48 | 1016.7 |
| 20260501162043 | 23 | 249 | 12.9 | 17.7 | 0.00 | 0.00 | 0.00 | 48 | 1016.6 |
| 20260501154718 | 24 | 231 | 11.3 | 14.5 | 0.00 | 0.00 | 0.00 | 44 | 1016.9 |
| 20260501153655 | 24 | 213 | 11.3 | 17.7 | 0.00 | 0.00 | 0.00 | 44 | 1017.0 |
| 20260501151601 | 25 | 224 | 11.3 | 14.5 | 0.00 | 0.00 | 0.00 | 43 | 1016.9 |
| 20260501150617 | 25 | 215 | 11.3 | 17.7 | 0.00 | 0.00 | 0.00 | 44 | 1017.0 |
| 20260501145634 | 25 | 221 | 11.3 | 17.7 | 0.00 | 0.00 | 0.00 | 43 | 1017.2 |